TimeEDT,TemperatureF,Dew PointF,Humidity,Sea Level PressureIn,VisibilityMPH,Wind Direction,Wind SpeedMPH,Gust SpeedMPH,PrecipitationIn,Events,Conditions,WindDirDegrees,DateUTC
12:53 AM,82.0,73.9,76,-9999,10.0,SSW,10.4,-,N/A,,Unknown,200,2013-07-28 04:53:00
1:53 AM,81.0,73.0,77,-9999,10.0,North,-9999.0,-,N/A,,Unknown,0,2013-07-28 05:53:00
2:53 AM,81.0,73.0,77,-9999,7.0,SSE,5.8,-,N/A,Rain,Light Rain,160,2013-07-28 06:53:00
3:03 AM,80.6,73.4,79,-9999,7.0,SSE,5.8,-,N/A,Rain-Thunderstorm,Light Rain,160,2013-07-28 07:03:00
3:44 AM,80.6,73.4,79,-9999,7.0,North,-9999.0,-,N/A,Rain,Light Rain,0,2013-07-28 07:44:00
3:53 AM,81.0,73.0,77,-9999,7.0,North,-9999.0,-,N/A,Rain,Light Rain,0,2013-07-28 07:53:00
4:53 AM,-9999,-9999,N/A,-9999,7.0,SSW,3.5,-,N/A,Rain,Light Rain,210,2013-07-28 08:53:00
5:53 AM,-9999,-9999,N/A,-9999,7.0,Calm,Calm,-,N/A,Rain,Light Rain,0,2013-07-28 09:53:00
6:53 AM,79.0,75.0,88,-9999,7.0,Calm,Calm,-,N/A,,Unknown,0,2013-07-28 10:53:00
7:53 AM,79.0,75.0,88,30.04,8.0,South,3.5,-,N/A,,Scattered Clouds,190,2013-07-28 11:53:00
8:53 AM,-9999,-9999,N/A,30.04,10.0,SSW,4.6,-,N/A,,Scattered Clouds,200,2013-07-28 12:53:00
9:53 AM,-9999,-9999,N/A,30.05,10.0,SSW,4.6,-,N/A,,Mostly Cloudy,200,2013-07-28 13:53:00
10:53 AM,80.1,-9999,N/A,-9999,8.0,Calm,Calm,-,N/A,,Scattered Clouds,0,2013-07-28 14:53:00
11:53 AM,-9999,-9999,N/A,30.07,10.0,Variable,3.5,-,N/A,,Mostly Cloudy,0,2013-07-28 15:53:00
12:53 PM,-9999,-9999,N/A,30.07,10.0,NNE,8.1,-,N/A,,Mostly Cloudy,20,2013-07-28 16:53:00
1:53 PM,87.1,73.9,65,30.06,10.0,Calm,Calm,-,N/A,,Mostly Cloudy,0,2013-07-28 17:53:00
2:53 PM,86.0,75.0,70,30.04,10.0,SE,4.6,-,N/A,,Unknown,130,2013-07-28 18:53:00
3:53 PM,86.0,75.9,72,30.03,10.0,North,-9999.0,-,N/A,,Clear,0,2013-07-28 19:53:00
4:53 PM,86.0,73.9,67,30.02,10.0,SE,9.2,-,N/A,,Mostly Cloudy,130,2013-07-28 20:53:00
5:53 PM,87.1,73.9,65,30.02,10.0,SE,6.9,-,N/A,,Clear,140,2013-07-28 21:53:00
6:53 PM,87.1,73.9,65,30.02,10.0,SE,9.2,-,N/A,,Clear,130,2013-07-28 22:53:00
7:53 PM,84.9,75.0,72,30.04,10.0,ESE,5.8,-,N/A,,Unknown,120,2013-07-28 23:53:00
8:53 PM,84.0,73.9,72,30.07,10.0,SSE,3.5,-,N/A,,Unknown,160,2013-07-29 00:53:00
9:53 PM,82.9,75.0,77,30.08,10.0,Calm,Calm,-,N/A,,Unknown,0,2013-07-29 01:53:00
10:53 PM,82.9,75.0,77,30.09,10.0,SE,4.6,-,N/A,,Unknown,130,2013-07-29 02:53:00
11:53 PM,84.0,75.0,74,30.07,10.0,SE,9.2,-,N/A,,Unknown,140,2013-07-29 03:53:00